Погода в Радоме

Польша     51°24′16″N   21°09′19″E
темп.,
°C
ветер,
м/с
пор.,
м/с
влажн.,
%
обл.,
%
осадки,
мм/ч
давл.,
гПа
погр.,
м
17 мая, пн
пн1723:00+10ююз369558 0.0 1006114
02:00+9ююз33920 0.0 100643
05:00+8ююв22920 0.0 100612
08:00+13ююв23790 0.0 1005248
11:00+18ююв22560 0.0 10051397
14:00+19ююв234799 0.1 10042093
17:00+19в345864 0.0 1003583
20:00+15в3669100 0.0 1002108
18 мая, вт
вт1823:00+12ссз228170 0.0 100339
02:00+12с2380100 0.0 100381
05:00+11зсз6993100 0.0 1003407
08:00+11сз7108499 0.0 1005579
11:00+11сз61183100 0.0 1005631
14:00+14зсз81073100 0.0 10061011
17:00+15сз797597 0.3 10061143
20:00+12зсз51190100 1.0 1007471
19 мая, ср
ср1923:00+11зсз6109497 0.2 1008416
02:00+9зсз499871 0.2 1009265
05:00+9з51096100 0.3 1010403
08:00+11зсз578991 0.4 1011600
11:00+12зсз5777100 0.1 1011994
14:00+17сз5656100 0.1 10111789
17:00+15зсз4565100 0.3 1011911
20:00+12сз368474 0.6 1012131
20 мая, чт
чт2023:00+9сз3590100 0.0 101386
02:00+8с3796100 0.0 1013159
05:00+6с3987100 0.0 1014210
08:00+9ссз5875100 0.0 1015417
11:00+13ссз6861100 0.0 10151171
14:00+16ссз6851100 0.0 10141924
17:00+15сз6859100 0.0 10151544
20:00+12сз61172100 0.1 1015384
21 мая, пт
пт2123:00+9сз5118882 0.1 1017309
02:00+9сз389384 0.1 1018345
05:00+5зсз49965 0.0 1019228
08:00+10зсз47745 0.0 1020614
11:00+13зсз685569 0.3 10191896
14:00+15з685099 0.3 10172202
17:00+14зсз356487 0.2 1017820
20:00+11всв117311 0.3 101610